Williston, ND

8:50 PM CST on February 13, 2016 (GMT -0600)
Sloulin International

Weather History for KISN - March, 2013

Change the Weather History Date:

Tuesday, March 12, 2013

  Actual Average Record
Temperature  
Mean Temperature 15 °F 27 °F  
Max Temperature 26 °F 38 °F 76 °F (2007)
Min Temperature 4 °F 17 °F -24 °F (1951)
Degree Days  
Heating Degree Days 50 38  
Month to date heating degree days 539 484  
Since 1 July heating degree days 7127 7252  
Cooling Degree Days 0 0  
Month to date cooling degree days 0 0  
Year to date cooling degree days 0 0  
Moisture  
Dew Point 11 °F    
Average Humidity 73    
Maximum Humidity 91    
Minimum Humidity 55    
Precipitation  
Precipitation T in 0.02 in 0.56 in (1904)
Month to date precipitation 0.73 0.25  
Year to date precipitation 1.30 1.23  
Snow  
Snow T in 0.20 in 7.00 in (1904)
Month to date snowfall 7.8 2.8  
Since 1 July snowfall 39.8 36.9  
Snow Depth 6.00 in    
Sea Level Pressure  
Sea Level Pressure 30.32 in    
Wind  
Wind Speed 9 mph (NW)    
Max Wind Speed 28 mph    
Max Gust Speed 35 mph    
Visibility 9 miles    
Events      
T = Trace of Precipitation, MM = Missing Value Source: NWS Daily Summary

Daily Weather History Graph

Daily Weather History Graph

Search for Another Location

Airport or City:

Trip Planner

Search our weather history database for the weather conditions in past years. The results will help you decide how hot, cold, wet, or windy it might be!

Date:

Astronomy

Mar. 12, 2013 Rise Set
Actual Time 8:13 AM CDT 7:55 PM CDT
Civil Twilight 7:42 AM CDT 8:27 PM CDT
Nautical Twilight 7:06 AM CDT 9:03 PM CDT
Astronomical Twilight 6:29 AM CDT 9:40 PM CDT
Moon 8:13 AM CDT (3/12) 9:23 PM CDT (3/12)
Length of Visible Light 12h 44m
Length of Day
11h 42m
New Moon, 1% of the Moon is Illuminated
Mar 12
New Moon
Mar 19
First Quarter
Mar 27
Full
Apr 2
Last Quarter
Apr 10
New

Hourly Weather History & Observations

Time (CDT) Temp. Windchill Dew Point Humidity Pressure Visibility Wind Dir Wind Speed Gust Speed Precip Events Conditions
12:21 AM 19.4 °F 1.4 °F 15.8 °F 86% 30.12 in 5.0 mi NNW 26.5 mph 32.2 mph 0.01 in   Overcast
12:52 AM 19.0 °F 2.0 °F 15.1 °F 85% 30.24 in 5.0 mi NNW 23.0 mph 33.4 mph 0.01 in   Overcast
1:05 AM 19.4 °F 3.2 °F 15.8 °F 86% 30.14 in 6.0 mi NNW 20.7 mph 27.6 mph 0.00 in   Overcast
1:19 AM 17.6 °F 1.3 °F 15.8 °F 93% 30.14 in 6.0 mi NNW 19.6 mph 26.5 mph 0.00 in   Overcast
1:52 AM 17.1 °F -0.6 °F 14.0 °F 88% 30.25 in 4.0 mi NNW 23.0 mph 32.2 mph 0.00 in   Mostly Cloudy
2:52 AM 16.0 °F -1.7 °F 10.9 °F 81% 30.26 in 9.0 mi NNW 21.9 mph 26.5 mph 0.00 in   Partly Cloudy
3:52 AM 14.0 °F -2.0 °F 10.0 °F 84% 30.30 in 10.0 mi NW 16.1 mph 24.2 mph 0.00 in   Clear
4:52 AM 12.2 °F -6.3 °F 8.6 °F 85% 30.21 in 10.0 mi NW 20.7 mph - N/A   Clear
5:52 AM 9.0 °F -9.0 °F 6.1 °F 88% 30.36 in 10.0 mi WNW 17.3 mph - N/A   Clear
6:15 AM 10.4 °F -6.6 °F 6.8 °F 85% 30.26 in 10.0 mi WNW 16.1 mph - N/A   Mostly Cloudy
6:47 AM 8.6 °F -8.9 °F 5.0 °F 85% 30.27 in 10.0 mi NW 16.1 mph - N/A   Scattered Clouds
7:52 AM 6.8 °F -10.0 °F 3.2 °F 85% 30.28 in 10.0 mi WNW 13.8 mph - N/A   Clear
8:52 AM 6.1 °F -10.9 °F 3.0 °F 87% 30.42 in 10.0 mi WNW 13.8 mph - N/A   Clear
10:52 AM 10.9 °F -2.6 °F 6.1 °F 81% 30.44 in 10.0 mi WNW 10.4 mph - N/A   Clear
11:52 AM 14.0 °F 2.9 °F 9.0 °F 80% 30.45 in 10.0 mi West 8.1 mph - N/A   Clear
12:52 PM 16.0 °F 7.4 °F 10.0 °F 77% 30.44 in 10.0 mi WNW 5.8 mph - N/A   Clear
1:52 PM 19.0 °F 8.2 °F 12.0 °F 74% 30.43 in 10.0 mi WNW 9.2 mph - N/A   Clear
2:52 PM 19.9 °F 12.1 °F 12.0 °F 71% 30.42 in 10.0 mi NW 5.8 mph - N/A   Clear
3:52 PM 21.9 °F 15.7 °F 10.0 °F 60% 30.40 in 10.0 mi West 4.6 mph - N/A   Clear
4:52 PM 24.1 °F - 15.1 °F 69% 30.38 in 10.0 mi Calm Calm - N/A   Clear
5:52 PM 26.1 °F - 12.9 °F 58% 30.37 in 10.0 mi Calm Calm - N/A   Clear
6:52 PM 21.9 °F 17.2 °F 14.0 °F 72% 30.36 in 10.0 mi NNE 3.5 mph - N/A   Clear
7:52 PM 21.0 °F 16.2 °F 12.9 °F 71% 30.36 in 10.0 mi SE 3.5 mph - N/A   Clear
8:52 PM 21.0 °F 14.6 °F 12.9 °F 71% 30.35 in 10.0 mi South 4.6 mph - N/A   Clear
9:52 PM 19.0 °F 12.3 °F 12.0 °F 74% 30.35 in 10.0 mi SSE 4.6 mph - N/A   Clear
10:52 PM 18.0 °F 9.8 °F 12.9 °F 81% 30.34 in 10.0 mi SSE 5.8 mph - N/A   Clear
11:52 PM 16.0 °F 10.4 °F 12.0 °F 84% 30.31 in 10.0 mi ESE 3.5 mph - N/A   Clear